Other Public Products
Issued by NWS Grand Forks, ND

Home | Current Version | Previous Version | Graphics & Text | Print | Product List | Glossary On
Versions: 1 2 3 4 5 6 7 8 9 10 11 12 13 14 15 16 17 18 19 20 21 22 23 24 25 26 27 28 29 30 31 32 33 34 35 36 37 38 39 40 41 42 43 44 45 46 47 48 49 50
035
FPUS83 KFGF 222131
OPUFGF
PRAIRIE TO PINES WEATHER ROUNDUP
NATIONAL WEATHER SERVICE EASTERN NORTH DAKOTA/GRAND FORKS ND
400 PM CDT MON MAY 22 2017

 **SATELLITE DATA USED TO AUGMENT SKY COVER AT AUTOMATED STATIONS**
 *****  WEATHER ACROSS EASTERN NORTH DAKOTA  *****

CITY           SKY/WX    TMP DP  RH WIND       PRES   REMARKS
GRAND FORKS    CLOUDY    54  45  71 N18       29.87S
GRAND FORKS AF LGT RAIN  52  45  76 N13       29.88F
GRAND CITY NWS NOT AVBL
BUXTON           N/A     49  46  88 NW17        N/A
DEVILS LAKE    LGT RAIN  53  43  68 N10       29.93S
FARGO          CLOUDY    55  43  63 N18       29.87
WAHPETON ARPT  CLOUDY    55  37  50 NW14G22   29.87R
$$

 *****  WEATHER ACROSS CENTRAL AND WESTERN NORTH DAKOTA  *****

CITY           SKY/WX    TMP DP  RH WIND       PRES   REMARKS
JAMESTOWN      CLOUDY    54  40  59 N25G31    29.92R
BISMARCK       CLOUDY    61  39  44 N15G24    29.99R
MINOT          LGT RAIN  56  43  61 NW14G31   29.98R
MINOT AFB      LGT RAIN  60  40  47 N20G30    29.96S
GARRISON         N/A     63  36  36 N23G29    29.98F
WILLISTON      CLOUDY    64  36  35 N14       30.06S
DICKINSON      CLOUDY    58  33  39 N14       30.03R
HETTINGER      PTSUNNY   62  34  35 N18G30    30.04R
$$

 *****  OTHER OBSERVATIONS NORTHEAST NORTH DAKOTA  *****

CITY           SKY/WX    TMP DP  RH WIND       PRES   REMARKS
WALHALLA       NOT AVBL
LANGDON        CLOUDY    50  48  93 NE18G26   29.91R
CAVALIER       LGT RAIN  50  45  81 N16       29.88F
GRAFTON        DRIZZLE   50  50 100 NW14G21   29.90R
CANDO          NOT AVBL
FORT TOTTEN    NOT AVBL
ROLLA          CLOUDY    59  28  31 N23G32    29.92S
RUGBY          NOT AVBL
 ***** THE ABOVE OBSERVATIONS ARE NON NWS ARE NOT QUALITY
        CONTROLLED AND MAY MIS-REPORT RAIN FOR SNOW...
$$

 *****  OTHER OBSERVATIONS SOUTHEAST NORTH DAKOTA *****

CITY           SKY/WX    TMP DP  RH WIND       PRES   REMARKS
COOPERSTOWN    MOCLDY    50  45  81 N17       29.92S
VALLEY CITY    NOT AVBL
OAKES          NOT AVBL
GWINNER        CLOUDY    55  41  58 MISG      29.89R
SHEYENNE NWR     N/A     56  40  56 N12       29.95S
BUFFALO          N/A     51  38  60 NW17        N/A
WYNDMERE         N/A     57  45  62 N12         N/A
 ***** THE ABOVE OBSERVATIONS ARE NON NWS ARE NOT QUALITY
       CONTROLLED AND MAY MIS-REPORT RAIN FOR SNOW...
$$

  *****  WEATHER ACROSS NORTHERN MINNESOTA  *****

CITY           SKY/WX    TMP DP  RH WIND       PRES   REMARKS
FLAG ISLAND    LGT RAIN  48  45  87 N13       29.81S
WARROAD        LGT RAIN  48  45  87 N8        29.83S
ROSEAU         RAIN      48  45  87 N15G22    29.83R
HALLOCK        DRIZZLE   52  48  87 N14       29.86S
THF RVR FALLS  LGT RAIN  48  43  82 N13       29.86R
HALSTAD          N/A     52  43  70 N18         N/A
FOSSTON        DRIZZLE   45  43  93 NW8       29.85R
BAUDETTE       LGT RAIN  49  45  86 N10       29.81R
WASKISH        LGT RAIN  46  45  93 NW5       29.82R
CROOKSTON      PTSUNNY   52  45  76 NW13      29.87S
$$
  *****  WEATHER ACROSS CENTRAL AND WEST MINNESOTA  *****

CITY           SKY/WX    TMP DP  RH WIND       PRES   REMARKS
BEMIDJI        LGT RAIN  48  44  87 NW10      29.82R
PARK RAPIDS    LGT RAIN  53  39  59 NW13      29.82R
WADENA         CLOUDY    54  41  62 NW13G20   29.83S
DETROIT LAKES  PTSUNNY   54  43  66 NW16G23   29.85S
MOORHEAD       FAIR      54  45  71 N15       29.88R
FERGUS FALLS   CLOUDY    55  43  62 N10G17    29.85R
ELBOW LAKE     CLOUDY    55  42  63 NW13G18   29.86S
MORRIS MN      FAIR      63  46  55 NW13      29.85R
STAPLES        CLOUDY    55  39  54 W17       29.83S
WHEATON        FAIR      61  39  44 N15G24    29.87F
$$
  *****  WEATHER ELSEWHERE ACROSS MINNESOTA  *****

CITY           SKY/WX    TMP DP  RH WIND       PRES   REMARKS
DULUTH         CLOUDY    53  45  74 W14       29.79R
INTRNTL FALLS  LGT RAIN  49  43  80 NW10      29.79R
ELY            CLOUDY    50  41  71 W12       29.76R
CLOQUET        CLOUDY    54  43  66 W3        29.79S
BRAINERD       CLOUDY    55  42  61 NW15      29.82R
HIBBING        LGT RAIN  49  45  86 W6        29.78R FOG
ALEXANDRIA     CLOUDY    57  42  57 NW14G22   29.85S
SAINT CLOUD    PTSUNNY   60  44  55 W14G20    29.82S
MINNEAPOLIS    FAIR      66  42  41 NW13G20   29.82S
$$

  *****  WEATHER ACROSS SOUTH DAKOTA  *****

CITY           SKY/WX    TMP DP  RH WIND       PRES   REMARKS
SIOUX FALLS    CLOUDY    62  50  64 W12       29.87S
BROOKINGS      RAIN      52  48  87 N6        29.88R FOG
WATERTOWN      PTSUNNY   58  39  49 N13       29.87S
HURON          LGT RAIN  51  48  89 N12       29.92R
SISSETON         N/A     62  42  47 N15       29.85S
ABERDEEN       CLOUDY    59  36  42 N17       29.90R
MITCHELL       CLOUDY    58  48  69 N18       29.91R
PIERRE         FAIR      60  44  55 N12       29.95S
MOBRIDGE       PTSUNNY   62  36  37 N16G23    29.93R
RAPID CITY     LGT RAIN  49  40  71 N32G41    30.06R
$$

  *****  SOME WEATHER IN NEARBY STATES *****

CITY           SKY/WX    TMP DP  RH WIND       PRES   REMARKS
GLASGOW MT     PTSUNNY   69  31  24 N21G28    30.11F
GREAT FALLS MT CLOUDY    68  36  30 VRB5      30.22R
CHEYENNE WY    RAIN      39  36  89 N18G25    30.17F FOG
SCOTTSBLUFF NE CLOUDY    53  41  63 NW18G29   30.10R
OMAHA NE       PTSUNNY   72  52  49 S16       29.86F
DES MOINES IA  CLOUDY    71  56  58 SW17      29.86F
DAVENPORT IA   FAIR      67  54  63 SW22G30   29.91F
CHICAGO IL     CLOUDY    72  42  34 SW17      29.90F
EAU CLAIRE WI  FAIR      66  43  43 W9        29.80F
LA CROSSE WI   PTSUNNY   72  49  44 S13       29.81S
$$

  *****  SOME NATIONAL WEATHER *****

CITY           SKY/WX    TMP DP  RH WIND       PRES   REMARKS
LA GUARDIA NY  LGT RAIN  61  59  93 S8        29.98F FOG
RALEIGH NC     PTSUNNY   79  67  66 VRB5      29.96F
ATLANTA GA     LGT RAIN  70  68  93 NW6       29.99F
NEW ORLEANS LA PTSUNNY   78  69  73 E5        29.96F
OKLAHOMA CITY  CLOUDY    67  54  63 SE5       29.99F
ALBUQUERQUE NM FAIR      79  14   8 NW21G35   30.06F
SALT LAKE CITY FAIR      74  43  32 NW14      30.20F
LOS ANGELES CA FAIR      67  58  72 W14       29.96F
BOISE ID       FAIR      79  42  26 NW14      30.15F
SEATTLE WA     FAIR      78  52  40 NE10      30.12F
$$

*** WEATHER ACROSS MANITOBA...SASKATCHEWAN AND ONTARIO ***
                ***ONTARIO***

CITY           SKY/WX    TMP DP  RH WIND       PRES   REMARKS
GERALDTON      CLOUDY    50  45  81 W6        29.70R
THUNDER BAY    LGT RAIN  55  46  71 NW6       29.72R
SIOUX LOOKOUT  DRIZZLE   48  45  87 N6        29.76R
TORONTO        PTSUNNY   63  45  51 W13G21    29.91F
BIG TROUT LK   MOSUNNY   63  32  31 NE12G28   29.95R
PICKLE LAKE    LGT RAIN  45  45 100 NE14G25   29.81R FOG
DRYDEN         LGT RAIN  48  46  93 N9G17     29.77R
KENORA         LGT RAIN  46  43  87 N10       29.81R
$$
                *** MANITOBA***

CITY           SKY/WX    TMP DP  RH WIND       PRES   REMARKS
BRANDON        CLOUDY    61  30  31 N25G37    29.95R
DAUPHIN        PTSUNNY   64  34  32 NE18G28   30.03R
ISLAND LAKE    NOT AVBL
PILOT MOUND      N/A     55  39  54 NE15G26     N/A
THE PAS        MOSUNNY   66  34  30 N7        30.10S
THOMPSON       MOSUNNY   64  37  36 N12G21    30.13F
WINNIPEG       PTSUNNY   54  46  76 NE25G36   29.90R
LYNN LAKE      SUNNY     68  28  22 VRB7      30.16F
CHURCHILL      CLOUDY    32  32 100 NE8       30.29F FOG     WCI  25
GILLAM         MOSUNNY   54  34  47 NE7       30.18S
$$
                ***SASKATCHEWAN***

CITY           SKY/WX    TMP DP  RH WIND       PRES   REMARKS
ESTEVAN        PTSUNNY   64  32  29 N21G28    30.03S
KINDERSLEY     MOSUNNY   70  30  23 VRB8      30.17F
LLOYDMINSTER   PTSUNNY   70  36  28 SE5       30.16F
PRINCE ALBERT  PTSUNNY   73  32  21 N5G24     30.12S
REGINA         PTSUNNY   64  36  34 N9        30.11R
YORKTON        MOSUNNY   66  32  28 N20G30    30.06R



USA.gov is the U.S. government's official web portal to all federal, state and local government web resources and services.